Location: *
(57.8420°S, 159.8600°W)
Time: 03:45:01
(UTC+00:00)

CENTAUR R/B - Pass Details

Date: 18 May 2021
Orbit: 740 x 1447 km, 63.4° (Epoch: 18 June)

Event Time Altitude Azimuth Distance (km) Brightness Sun altitude
Rises 06:32:51 0° 257° (WSW) 4,005 6.8 -31.9°
Reaches altitude 10° 06:35:51 10° 252° (WSW) 2,933 5.9 -32.3°
Enters shadow 06:41:49 50° 198° (SSW) 1,213 3.0 -33.1°
